Location: Cosy Dell
(34.2789°N, 117.4537°W)
Time: 12:27:50
(UTC+00:00)

Cosmos 1544 - Pass Details

Date: 14 July 2020
Orbit: 473 x 490 km, 82.5° (Epoch: 08 August)

Event Time Altitude Azimuth Distance (km) Brightness Sun altitude
Exits shadow 10:51:40 40° 147° (SSE) 711 3.7 -20.2°
Maximum altitude 10:52:38 55° 94° (E) 572 3.5 -20.1°
Drops below altitude 10° 10:56:09 10° 16° (NNE) 1,643 6.6 -19.6°
Sets 10:58:16 0° 12° (NNE) 2,525 7.7 -19.3°
